User: anonymous   Login
Location: Unspecified
(43.4680°N, 87.1740°E)
Time: 03:34:27
(UTC+00:00)
Language:

Cosmos 1908 Rocket - Orbit

View from above orbital plane
View from above orbital plane
View from above satellite
View from above satellite

Ground track
Ground track

The orbit data is extracted from the following two-line orbital elements,

1 18749U 88001B   21171.55828734  .00000082  00000-0  70652-5 0  9995
2 18749  82.5140  12.6700 0019192 160.7613 261.3713 14.83262948786431
Epoch (UTC): 20 June 2021 13:23:56
Eccentricity: 0.0019192
inclination: 82.5140°
perigee height: 605 km
apogee height: 632 km
right ascension of ascending node: 12.6700°
argument of perigee: 160.7613°
revolutions per day: 14.83262948
mean anomaly at epoch: 261.3713°
orbit number at epoch: 78643

The dashed part of the orbit path shows where the satellite is in the earth's shadow,  

DLR